• In United Kingdom
  • List of Countries
  • For 7 days
  • Water Temperature
  • Satellite Maps
  • Weather Map
  • Weather Widgets
  • user-avatar
    Login

    Hourly Weather Kandahar

    Today, 21 October, Sunday

    Time Temperature Precipitation Wind Pressure Humidity
    00:00 +13°C° 0 mm 0 mps 677 mmHg 18%
    01:00 +13°C° 0 mm 0 mps 677 mmHg 19%
    02:00 +12°C° 0 mm 0 mps 677 mmHg 19%
    03:00 +12°C° 0 mm 0 mps 677 mmHg 20%
    04:00 +12°C° 0 mm 0 mps 677 mmHg 20%
    05:00 +13°C° 0 mm 0 mps 677 mmHg 19%
    06:00 +14°C° 0 mm 0 mps 678 mmHg 17%
    07:00 +15°C° 0 mm 0 mps 678 mmHg 16%
    08:00 +19°C° 0 mm 1 mps 679 mmHg 14%
    09:00 +21°C° 0 mm 1 mps 679 mmHg 12%
    10:00 +23°C° 0 mm 1 mps 680 mmHg 10%
    11:00 +24°C° 0 mm 2 mps 680 mmHg 10%
    12:00 +25°C° 0 mm 2 mps 679 mmHg 9%
    13:00 +26°C° 0 mm 2 mps 679 mmHg 9%
    14:00 +26°C° 0 mm 2 mps 679 mmHg 9%
    15:00 +26°C° 0 mm 3 mps 679 mmHg 9%
    16:00 +26°C° 0 mm 3 mps 679 mmHg 10%
    17:00 +24°C° 0 mm 2 mps 678 mmHg 11%
    18:00 +21°C° 0 mm 2 mps 678 mmHg 12%
    19:00 +21°C° 0 mm 1 mps 678 mmHg 14%
    20:00 +20°C° 0 mm 1 mps 678 mmHg 15%
    21:00 +19°C° 0 mm 1 mps 678 mmHg 15%
    22:00 +18°C° 0 mm 1 mps 678 mmHg 16%
    23:00 +18°C° 0 mm 1 mps 678 mmHg 17%

    Tomorrow, 22 October, Monday

    Time Temperature Precipitation Wind Pressure Humidity
    00:00 +16°C° 0 mm 1 mps 677 mmHg 17%
    01:00 +16°C° 0 mm 1 mps 677 mmHg 18%
    02:00 +16°C° 0 mm 1 mps 677 mmHg 18%
    03:00 +14°C° 0 mm 0 mps 677 mmHg 19%
    04:00 +14°C° 0 mm 0 mps 676 mmHg 19%
    05:00 +15°C° 0 mm 0 mps 677 mmHg 18%
    06:00 +16°C° 0 mm 0 mps 677 mmHg 17%
    07:00 +17°C° 0 mm 0 mps 678 mmHg 16%
    08:00 +21°C° 0 mm 1 mps 678 mmHg 15%
    09:00 +23°C° 0 mm 1 mps 679 mmHg 14%
    10:00 +25°C° 0 mm 1 mps 679 mmHg 12%
    11:00 +26°C° 0 mm 2 mps 678 mmHg 12%
    12:00 +27°C° 0 mm 3 mps 678 mmHg 13%
    13:00 +28°C° 0 mm 4 mps 678 mmHg 13%
    14:00 +28°C° 0 mm 5 mps 677 mmHg 13%
    15:00 +28°C° 0 mm 5 mps 677 mmHg 14%
    16:00 +28°C° 0 mm 5 mps 676 mmHg 14%
    17:00 +26°C° 0 mm 4 mps 676 mmHg 16%
    18:00 +24°C° 0 mm 3 mps 676 mmHg 17%
    19:00 +23°C° 0 mm 2 mps 676 mmHg 19%
    20:00 +21°C° 0 mm 2 mps 676 mmHg 20%
    21:00 +21°C° 0 mm 1 mps 676 mmHg 21%
    22:00 +20°C° 0 mm 1 mps 676 mmHg 22%
    23:00 +19°C° 0 mm 1 mps 676 mmHg 23%

    Day after tomorrow, 23 October, Tuesday

    Time Temperature Precipitation Wind Pressure Humidity
    00:00 +19°C° 0 mm 1 mps 675 mmHg 24%
    01:00 +19°C° 0 mm 1 mps 675 mmHg 24%
    02:00 +18°C° 0 mm 1 mps 675 mmHg 25%
    03:00 +18°C° 0 mm 1 mps 675 mmHg 26%
    04:00 +16°C° 0 mm 1 mps 675 mmHg 26%
    05:00 +18°C° 0 mm 1 mps 675 mmHg 25%
    06:00 +19°C° 0 mm 1 mps 676 mmHg 24%
    07:00 +20°C° 0 mm 1 mps 676 mmHg 23%
    08:00 +22°C° 0 mm 1 mps 677 mmHg 21%
    09:00 +23°C° 0 mm 1 mps 677 mmHg 18%
    10:00 +25°C° 0 mm 1 mps 678 mmHg 16%
    11:00 +26°C° 0 mm 2 mps 677 mmHg 15%
    12:00 +27°C° 0 mm 3 mps 677 mmHg 14%
    13:00 +28°C° 0 mm 4 mps 676 mmHg 13%
    14:00 +28°C° 0 mm 4 mps 676 mmHg 13%
    15:00 +28°C° 0 mm 4 mps 676 mmHg 13%
    16:00 +28°C° 0 mm 5 mps 676 mmHg 13%
    17:00 +26°C° 0 mm 4 mps 676 mmHg 15%
    18:00 +24°C° 0 mm 3 mps 676 mmHg 17%
    19:00 +21°C° 0 mm 2 mps 675 mmHg 19%
    20:00 +21°C° 0 mm 2 mps 675 mmHg 20%
    21:00 +21°C° 0 mm 1 mps 675 mmHg 21%
    22:00 +20°C° 0 mm 1 mps 675 mmHg 22%
    23:00 +20°C° 0 mm 1 mps 675 mmHg 23%

    24 October, Wednesday

    Time Temperature Precipitation Wind Pressure Humidity
    00:00 +19°C° 0 mm 1 mps 675 mmHg 24%
    01:00 +19°C° 0 mm 1 mps 674 mmHg 25%
    02:00 +18°C° 0 mm 1 mps 674 mmHg 26%
    03:00 +18°C° 0 mm 1 mps 674 mmHg 27%
    04:00 +16°C° 0 mm 1 mps 674 mmHg 28%
    05:00 +18°C° 0 mm 1 mps 675 mmHg 26%
    06:00 +19°C° 0 mm 1 mps 675 mmHg 25%
    07:00 +20°C° 0 mm 1 mps 676 mmHg 24%
    08:00 +22°C° 0 mm 1 mps 676 mmHg 21%
    09:00 +24°C° 0 mm 1 mps 677 mmHg 19%
    10:00 +26°C° 0 mm 2 mps 677 mmHg 16%
    11:00 +27°C° 0 mm 2 mps 677 mmHg 15%
    12:00 +28°C° 0 mm 3 mps 676 mmHg 14%
    13:00 +29°C° 0 mm 4 mps 676 mmHg 13%
    14:00 +29°C° 0 mm 4 mps 676 mmHg 14%
    15:00 +29°C° 0 mm 5 mps 676 mmHg 14%
    16:00 +28°C° 0 mm 5 mps 675 mmHg 14%
    17:00 +27°C° 0 mm 4 mps 675 mmHg 16%
    18:00 +25°C° 0 mm 3 mps 675 mmHg 18%
    19:00 +23°C° 0 mm 2 mps 675 mmHg 20%
    20:00 +22°C° 0 mm 1 mps 675 mmHg 21%
    21:00 +21°C° 0 mm 1 mps 676 mmHg 23%
    22:00 +20°C° 0 mm 1 mps 676 mmHg 24%
    23:00 +20°C° 0 mm 1 mps 675 mmHg 24%

    25 October, Thursday

    Time Temperature Precipitation Wind Pressure Humidity
    00:00 +19°C° 0 mm 1 mps 675 mmHg 25%
    01:00 +19°C° 0 mm 1 mps 674 mmHg 26%
    02:00 +18°C° 0 mm 1 mps 674 mmHg 27%
    03:00 +18°C° 0 mm 1 mps 674 mmHg 28%
    04:00 +15°C° 0 mm 0 mps 674 mmHg 29%
    05:00 +16°C° 0 mm 0 mps 675 mmHg 28%
    06:00 +17°C° 0 mm 0 mps 676 mmHg 26%
    07:00 +18°C° 0 mm 0 mps 676 mmHg 25%
    08:00 +22°C° 0 mm 1 mps 677 mmHg 22%
    09:00 +24°C° 0 mm 1 mps 677 mmHg 19%
    10:00 +27°C° 0 mm 1 mps 678 mmHg 16%
    11:00 +28°C° 0 mm 2 mps 678 mmHg 15%
    12:00 +29°C° 0 mm 2 mps 677 mmHg 15%
    13:00 +30°C° 0 mm 3 mps 677 mmHg 14%
    14:00 +29°C° 0 mm 3 mps 677 mmHg 14%
    15:00 +29°C° 0 mm 3 mps 677 mmHg 14%
    16:00 +29°C° 0 mm 4 mps 677 mmHg 14%
    17:00 +27°C° 0 mm 3 mps 677 mmHg 16%
    18:00 +25°C° 0 mm 2 mps 677 mmHg 18%
    19:00 +23°C° 0 mm 2 mps 677 mmHg 20%
    20:00 +23°C° 0 mm 1 mps 677 mmHg 21%
    21:00 +22°C° 0 mm 1 mps 677 mmHg 22%
    22:00 +22°C° 0 mm 1 mps 677 mmHg 23%
    23:00 +21°C° 0 mm 1 mps 677 mmHg 23%

    26 October, Friday

    Time Temperature Precipitation Wind Pressure Humidity
    00:00 +21°C° 0 mm 1 mps 677 mmHg 24%
    01:00 +20°C° 0 mm 1 mps 676 mmHg 24%
    02:00 +20°C° 0 mm 1 mps 676 mmHg 25%
    03:00 +20°C° 0 mm 1 mps 677 mmHg 26%
    04:00 +19°C° 0 mm 1 mps 677 mmHg 26%
    05:00 +20°C° 0 mm 1 mps 677 mmHg 26%
    06:00 +21°C° 0 mm 1 mps 678 mmHg 25%
    07:00 +22°C° 0 mm 1 mps 679 mmHg 25%
    08:00 +24°C° 0 mm 2 mps 679 mmHg 24%
    09:00 +26°C° 0 mm 2 mps 680 mmHg 23%
    10:00 +28°C° 0 mm 2 mps 680 mmHg 22%
    11:00 +29°C° 0 mm 2 mps 680 mmHg 21%
    12:00 +30°C° 0 mm 2 mps 679 mmHg 19%
    13:00 +30°C° 0 mm 3 mps 679 mmHg 18%
    14:00 +30°C° 0 mm 3 mps 679 mmHg 18%
    15:00 +30°C° 0 mm 3 mps 678 mmHg 17%
    16:00 +30°C° 0 mm 3 mps 678 mmHg 17%
    17:00 +28°C° 0 mm 3 mps 678 mmHg 19%
    18:00 +26°C° 0 mm 2 mps 678 mmHg 22%
    19:00 +25°C° 0 mm 1 mps 678 mmHg 24%
    20:00 +24°C° 0 mm 1 mps 678 mmHg 25%
    21:00 +23°C° 0 mm 1 mps 679 mmHg 26%
    22:00 +23°C° 0 mm 1 mps 679 mmHg 27%
    23:00 +22°C° 0 mm 1 mps 678 mmHg 28%
    Show more